Location: *
(53.7722°N, 9.8765°E)
Time: 07:16:29
(UTC+00:00)

Daily predictions for brighter satellites

Satellite Brightness Start Highest point End
(mag) Time Altitude Azimuth Time Altitude Azimuth Time Altitude Azimuth
NOSS 2-1 (E) 4.2 15:42:16 10° NW 15:47:01 89° SW 15:53:43 10° SE
Cosmos 540 Rocket 3.8 15:42:47 10° S 15:47:43 50° ESE 15:52:40 10° NE
Cosmos 2360 Rocket 2.4 15:44:08 10° SW 15:49:47 79° NW 15:55:27 10° NNE
SL-24 R/B - RUBIN 2 4.4 15:43:31 10° NW 15:50:05 76° NE 15:55:59 10° SE
Cosmos 2084 Rocket 3.4 15:48:57 10° SW 15:53:05 84° SE 15:57:22 10° NE
Spot 2 4.3 15:51:11 10° SSE 15:55:47 86° ENE 16:00:42 10° NNW
ERS-2 4.2 15:56:19 10° E 15:56:45 10° E 15:57:11 10° E
NOAA 12 4.4 15:51:45 10° SE 15:56:51 48° ENE 16:01:57 10° N
Cosmos 2219 Rocket 2.4 15:52:38 10° S 15:58:08 56° ESE 16:03:39 10° NE
Landsat 5 4.2 15:54:42 10° NNE 15:58:47 39° E 16:02:57 10° SSE
Cosmos 1607 4.1 15:53:21 10° SW 15:59:43 80° SE 16:06:12 10° NE
Cosmos 841 Rocket 3.6 15:54:37 10° S 15:59:46 60° ESE 16:04:54 10° NNE
CZ-4B R/B 4.2 15:57:17 10° S 16:01:17 48° W 16:05:30 10° NNW
H-2A R/B 2.8 15:59:18 10° NNE 16:03:03 32° E 16:06:50 10° SSE
Cosmos 1980 Rocket 4.0 15:59:15 10° WNW 16:03:27 21° NNW 16:07:40 10° NNE
Cosmos 2074 Rocket 4.0 15:58:13 10° N 16:04:29 80° ENE 16:10:44 10° SSE
Envisat 3.0 15:59:26 10° SSE 16:04:31 79° ENE 16:09:38 10° NNW
CZ-4B R/B 3.2 15:59:18 10° SE 16:04:31 59° ENE 16:09:44 10° N
SL-16 R/B 3.3 16:00:11 10° WSW 16:05:28 38° NW 16:10:47 10° NNE
CZ-4 R/B 3.1 16:03:59 10° E 16:05:51 13° NE 16:07:43 10° NNE
SMAP 3.2 16:02:01 10° SE 16:06:33 54° ENE 16:11:06 10° N
Cosmos 2237 Rocket 3.2 16:03:19 10° SSE 16:07:53 26° ESE 16:12:28 10° NE
GENESIS II 4.2 16:06:27 10° NW 16:10:27 77° NE 16:14:23 10° SE
NOAA 11 4.5 16:06:21 10° SE 16:11:27 44° ENE 16:16:36 10° N
Cosmos 1633 Rocket 4.3 16:09:15 10° NNE 16:12:39 21° ENE 16:16:00 10° ESE
CREW DRAGON DEMO-1 DEB 3.4 16:09:50 10° W 16:12:46 53° S 16:15:41 10° ESE
FengYun 1-2 T 4.4 16:07:51 10° SE 16:13:10 48° ENE 16:18:27 10° N
Cosmos-2242 4.5 16:10:36 10° SW 16:14:42 39° WNW 16:18:52 10° N
Cosmos 2369 Rocket 3.4 16:11:40 10° NNW 16:16:15 24° NNE 16:20:20 12° E
Cosmos 2184 Rocket 4.1 16:10:26 10° N 16:16:53 89° WSW 16:23:16 10° S
H-2A R/B 3.5 16:13:42 10° E 16:17:03 17° NE 16:20:21 10° NNE
Cosmos 2322 3.8 16:11:35 10° SSW 16:17:16 89° WNW 16:23:00 10° NNE
Cosmos 1939 Rocket 3.8 16:14:47 10° ESE 16:17:59 25° ENE 16:21:13 10° N
Cosmos 1869 3.4 16:14:49 10° SSW 16:18:52 86° W 16:23:01 10° N
USA 281 3.6 16:13:08 10° ESE 16:19:13 42° NE 16:25:20 10° NNW
Cosmos 921 Rocket 4.3 16:15:05 10° SW 16:19:21 40° WNW 16:23:40 10° NNE
CORIOLIS 4.1 16:16:50 10° SSE 16:22:12 66° ENE 16:27:37 10° NNW
Cosmos 1814 Rocket 4.0 16:19:15 10° SSW 16:24:33 73° ESE 16:29:51 10° NNE
Cosmos 1980 4.3 16:20:44 10° S 16:25:52 36° ESE 16:30:35 12° NE
Cosmos 1295 Rocket 4.4 16:20:27 10° N 16:26:35 65° ENE 16:32:44 10° SSE
Cosmos 2221 2.5 16:25:23 10° S 16:29:43 83° ESE 16:34:04 10° NNE
Cosmos 1500 Rocket 3.7 16:27:05 10° NNW 16:31:28 78° W 16:35:53 10° S
H-2A R/B 4.2 16:28:42 10° S 16:32:20 42° W 16:36:04 10° NNW
Cosmos 1570 Rocket 4.1 16:28:42 10° SSW 16:34:01 87° WNW 16:39:20 10° NNE
CZ-4C R/B 3.1 16:33:22 10° NNE 16:37:00 87° WNW 16:40:38 10° SSW
YAOGAN 6 3.2 16:33:30 10° S 16:37:07 61° WSW 16:40:44 10° NNW
Meteor 2-2 Rocket 4.3 16:31:16 10° S 16:37:14 81° ESE 16:43:07 10° NNE
Cosmos 405 Rocket 3.2 16:35:54 10° NNW 16:39:45 64° W 16:43:39 10° S
ADEOS Rocket 3.7 16:34:05 10° NNE 16:41:40 84° WNW 16:49:29 10° SSW
Cosmos 2297 3.8 16:36:46 10° NNW 16:42:20 54° NE 16:47:55 10° SE
Cosmos 1943 Rocket 2.6 16:40:26 10° NNW 16:45:38 39° NE 16:50:05 14° ESE
YAOGAN 1 3.5 16:44:13 12° ESE 16:47:21 26° ENE 16:50:59 10° N
Cosmos 405 3.5 16:44:30 10° SSW 16:47:57 59° WNW 16:51:26 10° N
Cosmos 1470 Rocket 4.5 16:44:27 10° N 16:48:07 25° ENE 16:50:03 19° ESE
Cosmos 389 Rocket 3.2 16:45:31 10° SSE 16:48:34 30° E 16:49:22 27° ENE
Cosmos 44 3.5 16:43:52 10° NW 16:49:01 61° NE 16:54:10 11° ESE
USA 215 3.9 16:47:51 18° ENE 16:52:05 37° SE 16:58:05 10° SSW
H-2A R/B 4.0 16:48:22 10° S 16:52:27 40° W 16:56:26 10° NNW
BREEZE-M DEB (TANK) 3.5 16:50:55 10° SSW 16:52:34 20° SSE 16:53:03 19° SE
Cosmos 1933 4.3 16:49:52 10° SSE 16:53:17 27° E 16:53:49 26° ENE
Cosmos 2322 Rocket 3.8 16:48:54 10° W 16:53:42 27° NW 16:58:29 10° NNE
COSMO-SKYMED 1 3.4 16:52:06 22° NE 16:53:52 29° E 16:57:42 10° SSE
SL-16 R/B 3.3 16:51:24 10° SSE 16:55:47 24° ESE 16:56:52 22° E
Cosmos 2218 Rocket 4.1 16:50:25 10° N 16:56:25 50° ENE 17:02:22 10° SSE
CZ-2C R/B 3.4 16:52:52 10° SE 16:57:32 38° ENE 17:02:03 10° N
ARGOS 4.1 16:57:00 23° E 16:58:34 26° NE 17:02:59 10° N
Okean-O 3.1 16:54:41 10° SE 16:58:46 38° ENE 17:02:53 10° N
Sich 1 3.0 16:58:32 10° NNW 17:02:59 90° NE 17:07:23 10° S
Cosmos 1900 4.4 16:57:54 10° SW 17:03:02 86° SE 17:06:28 22° NE
Cosmos 1606 2.7 17:02:21 10° S 17:06:11 57° E 17:08:40 20° NNE
Cosmos 2366 rocket 4.0 17:01:26 10° N 17:07:34 56° ENE 17:13:37 10° SSE
Okean O Rocket 2.6 17:05:54 10° S 17:10:06 48° W 17:14:23 10° NNW
Cosmos 2333 Rocket 2.9 17:05:39 10° SW 17:11:11 52° NW 17:16:12 13° NNE
Helios 1A Rocket 3.1 17:07:32 10° SE 17:11:23 45° ENE 17:15:15 10° N
Cosmos 1125 Rocket 4.5 17:06:57 10° NW 17:11:58 50° WSW 17:16:58 10° S
Cosmos 1356 3.5 17:09:23 10° NNW 17:12:50 76° W 17:16:14 10° S
ISS -2.5 17:10:16 10° SW 17:13:13 29° SSE 17:13:33 28° SE
Cosmos 1805 Rocket 4.3 17:09:28 10° NNW 17:13:53 57° W 17:18:14 10° S
Nadezhda 1 Rocket 4.2 17:07:40 10° SSW 17:14:01 75° WNW 17:20:28 10° N
Meteor 1-20 Rocket 4.2 17:08:14 10° N 17:14:07 72° ENE 17:19:57 10° SSE
SAR-Lupe-4 4.3 17:15:58 34° SE 17:15:58 34° SE 17:18:38 10° S
COSMOS 2428 3.2 17:11:00 10° SW 17:16:40 58° NW 17:21:31 14° NNE
CZ-4B R/B 1.0 17:17:16 64° NE 17:17:36 73° ESE 17:20:41 10° S
Feng Yun 1-1 Rocket 4.3 17:12:08 10° SSE 17:17:56 84° WSW 17:23:39 10° NNW
Cosmos 1933 Rocket 4.5 17:14:50 10° N 17:17:57 30° NE 17:17:57 30° NE
Cosmos 2278 Rocket 3.9 17:14:02 10° NW 17:19:06 34° WSW 17:24:09 10° S
Cosmos 1666 Rocket 3.5 17:15:44 10° N 17:20:09 87° E 17:24:34 10° S
Cosmos 1151 Rocket 3.3 17:19:24 10° SSE 17:23:24 43° E 17:23:24 43° E
IRS-1C Rocket 4.1 17:22:02 10° SSE 17:27:20 87° WSW 17:32:40 10° NNW
USA 267 3.5 17:21:44 12° SE 17:27:53 66° SSW 17:34:25 10° WNW
Cosmos 1328 Rocket 4.0 17:25:17 10° SSE 17:28:37 40° ESE 17:28:37 40° ESE
ERS-2 2.0 17:29:45 43° NNE 17:30:53 87° E 17:34:34 10° SSW
Cosmos 2341 Rocket 4.3 17:25:48 10° NNW 17:32:03 71° W 17:38:18 10° S
EO 1 Delta rocket 4.3 17:27:35 11° NNE 17:32:19 56° E 17:38:25 10° S
SL-24 R/B 4.0 17:32:45 53° ESE 17:32:45 53° ESE 17:36:23 10° S
Meteor 1-25 Rocket 4.1 17:27:18 10° NNW 17:32:55 89° WSW 17:38:35 10° S
Cosmos 2360 Rocket 4.0 17:30:06 10° W 17:34:41 25° NNW 17:38:47 12° NNE
Cosmos 1602 4.1 17:31:38 10° N 17:34:42 47° NNE 17:34:42 47° NNE
NOSS 0 Rocket 4.0 17:30:20 10° SW 17:36:35 77° NW 17:40:49 22° NNE
CZ-2D R/B 3.3 17:33:08 10° S 17:36:57 79° WSW 17:40:49 10° NNW
H-2A R/B 3.5 17:35:17 10° N 17:39:04 35° WNW 17:42:52 10° SW
CSL-04 Debris 4.2 17:36:10 21° SE 17:39:45 58° ENE 17:45:10 10° N
SeaSat 1 4.4 17:40:25 14° NNE 17:40:25 14° NNE 17:42:32 10° N
CZ-4 R/B 1.2 17:38:23 31° SSE 17:40:12 81° ENE 17:44:14 10° NNW
SKYMED 2 3.4 17:40:45 42° NNE 17:42:12 78° ESE 17:46:33 10° SSW
Cosmos 2219 Rocket 3.4 17:37:05 10° WSW 17:42:21 38° NW 17:46:25 16° NNE
USA 81 4.1 17:38:26 10° N 17:43:44 79° W 17:49:01 10° S
SL-24 DEB 4.2 17:40:46 10° N 17:45:33 67° E 17:50:16 10° S
Cosmos 2285 Rocket 4.1 17:41:01 10° NNW 17:47:27 77° WSW 17:53:48 10° SSE
Cosmos 1980 Rocket 4.3 17:47:01 10° NNW 17:49:44 13° N 17:51:10 12° NNE
Cosmos 1633 Rocket 3.6 17:46:30 10° NNW 17:50:50 59° W 17:55:07 10° S
SL-16 R/B 4.3 17:47:41 10° WNW 17:51:16 17° NNW 17:54:07 12° NNE
Cosmos 2237 Rocket 2.4 17:45:52 10° SW 17:51:29 71° NW 17:54:26 29° NNE
Cosmos 1939 Rocket 4.1 17:49:06 10° SSW 17:52:46 40° W 17:56:29 10° NNW
Cosmos 44 Rocket 4.0 17:48:50 10° NW 17:53:24 40° NNE 17:53:24 40° NNE
Cosmos 1656 Rocket 4.0 17:49:06 10° NNW 17:54:21 45° NE 17:54:21 45° NE
H-2A R/B 1.9 17:52:26 24° SSE 17:55:44 76° ENE 18:00:57 10° NNW
SL-8 Rocket 4.4 17:50:04 10° NNW 17:56:11 62° W 18:02:21 10° S
Cosmos 2369 Rocket 2.1 17:55:32 10° NNW 18:01:17 73° NE 18:02:10 61° ESE
MOS 1 Rocket 3.6 18:03:47 64° ESE 18:03:47 64° ESE 18:08:55 10° S
CSL-04 Rocket 3.5 18:01:44 43° SSE 18:03:32 79° ENE 18:08:53 10° NNW
USA 281 3.7 17:57:04 10° SSE 18:03:33 61° WSW 18:10:05 10° NNW
Cosmos 783 Rocket 4.3 18:01:46 10° SSW 18:07:04 77° ESE 18:07:10 76° E
Cosmos 2181 Rocket 4.1 18:00:44 10° SSW 18:07:11 77° WNW 18:13:35 10° N
Cosmos 1980 4.3 18:04:14 10° SW 18:09:48 54° NW 18:12:27 30° NNE
Cosmos 1821 Rocket 3.8 18:03:50 10° N 18:10:02 70° ENE 18:11:29 53° SE
YAOGAN 1 3.5 18:21:23 29° SSW 18:23:16 48° W 18:27:29 10° NNW
Cosmos 1943 Rocket 2.8 18:24:13 10° NW 18:29:36 52° WSW 18:31:41 34° S
COSMO-SKYMED 1 3.8 18:29:20 36° NW 18:30:10 40° WNW 18:34:14 10° SW
Okean-O 4.3 18:31:17 10° SSW 18:35:17 33° W 18:39:20 10° NNW
USA 215 3.1 18:35:13 77° E 18:35:41 83° SSE 18:42:15 10° WSW
CZ-2C R/B 4.3 18:32:43 10° SSW 18:37:28 38° W 18:42:03 10° NNW
ARGOS 3.3 18:38:30 71° W 18:38:30 71° W 18:43:51 10° NNW
Cosmos 1867 3.9 18:33:23 10° SW 18:37:58 63° WSW 18:37:58 63° WSW
SL-16 R/B 2.3 18:33:39 10° SW 18:38:48 71° WSW 18:38:48 71° WSW
Cosmos 2322 Rocket 4.4 18:36:47 10° NW 18:39:49 14° N 18:40:48 14° N
ISS -0.3 18:46:22 10° WSW 18:46:31 11° WSW 18:46:31 11° WSW
Cosmos 2333 Rocket 4.2 18:52:45 10° WNW 18:56:48 20° NNW 18:58:13 18° N
NOSS 3-3 (A) 4.4 19:04:46 10° NW 19:11:31 78° WNW 19:11:31 78° WNW
NOSS 3-3 (C) 4.4 19:04:53 10° NW 19:11:36 78° WNW 19:11:36 78° WNW
CZ-4 R/B 4.4 19:14:25 11° WSW 19:15:50 13° W 19:17:46 10° WNW
Cosmos 2219 Rocket 4.4 19:24:27 10° WNW 19:27:58 16° NNW 19:28:09 16° NNW
H-2A R/B 4.3 19:33:04 15° SW 19:35:43 21° W 19:39:38 10° NW
Cosmos 2237 Rocket 4.2 19:32:07 10° W 19:36:16 23° NW 19:36:16 23° NW
Cosmos 2369 Rocket 4.1 19:40:13 10° NW 19:43:59 25° W 19:43:59 25° W
